Regional Weather Roundup
Issued by NWS Wilmington, NC

Home | Current Version | Previous Version | Text Only | Print | Product List | Glossary On
Versions: 1 2 3 4 5 6 7 8 9 10 11 12 13 14 15 16 17 18 19 20 21 22 23 24 25 26 27 28 29 30 31 32 33 34 35 36 37 38 39 40 41 42 43 44 45 46 47 48 49 50
000
ASUS42 KILM 012310
RWRILM
RWRILM
REGIONAL HOURLY WEATHER ROUNDUP
NATIONAL WEATHER SERVICE WILMINGTON NC
700 PM EDT MON SEP 01 2014

NOTE: "FAIR" INDICATES FEW OR NO CLOUDS BELOW 12,000 FEET WITH NO
SIGNIFICANT WEATHER AND/OR OBSTRUCTIONS TO VISIBILITY.

...............WFO WILMINGTON COUNTY WARNING AREA...............

......COASTAL NC AND SC COUNTIES......

CITY           SKY/WX    TMP DP  RH WIND       PRES   REMARKS
WILMINGTON     PTCLDY    84  74  71 S9        30.05S HX  91
SOUTHPORT      CLEAR     83  74  74 S7        30.07R
N MYRTLE BEACH PTCLDY    84  75  74 S14       30.06S HX  92
MYRTLE BEACH   PTCLDY    84  73  70 S9        30.06S HX  91

......INLAND NC AND SC COUNTIES.......

CITY           SKY/WX    TMP DP  RH WIND       PRES   REMARKS
LUMBERTON      MOCLDY    88  74  63 S3        30.03R HX  96
ELIZABETHTOWN  MOCLDY    89  74  61 SE8       30.04S HX  98
WHITEVILLE     PTCLDY    84  74  72 S6        30.05S HX  92
FLORENCE       MOCLDY    88  75  65 S9        30.05R THUNDER HX  97
DARLINGTON     MOCLDY    90  66  45 CALM      30.05R HX  92

....................REST OF NORTH CAROLINA......................

.........EASTERN NC.........

CITY           SKY/WX    TMP DP  RH WIND       PRES   REMARKS
CAPE HATTERAS  PTCLDY    81  77  88 SW15      30.05S
JACKSONVILLE   MOCLDY    84  72  65 S9        30.05R
MOREHEAD CITY  PTCLDY    83  76  79 SW13      30.06S HX  91
KENANSVILLE    MOCLDY    85  72  63 CALM      30.05R HX  91
NEW BERN       PTCLDY    85  75  72 S10       30.05S HX  93
ELIZABETH CITY MOCLDY    87  74  64 S7        30.01S HX  95

.........CENTRAL NC.........

CITY           SKY/WX    TMP DP  RH WIND       PRES   REMARKS
RALEIGH DURHAM MOCLDY    88  70  55 W3        30.03S HX  93
ROCKY MOUNT    MOCLDY    83  76  79 CALM      30.02S HX  91
ROANOKE RAPIDS NOT AVBL
FAYETTEVILLE   MOCLDY    91  73  55 S8        30.03R HX  99
HOFFMAN        PTCLDY    93  64  37 S7G14     30.04S HX  94

.........WESTERN NC.........

CITY           SKY/WX    TMP DP  RH WIND       PRES   REMARKS
CHARLOTTE      MOCLDY    89  65  44 SW5       30.05S HX  91
GREENSBORO     PTCLDY    87  63  44 W8        30.05S
HICKORY        NOT AVBL
BOONE          NOT AVBL
ASHEVILLE      NOT AVBL

.....................REST OF SOUTH CAROLINA.....................

.........EASTERN SC.........

CITY           SKY/WX    TMP DP  RH WIND       PRES   REMARKS
CHARLESTON     LGT RAIN  85  76  74 S8        30.06F HX  94
BEAUFORT MCAS  MOCLDY    86  76  71 SW5       30.05S HX  96
HILTON HEAD    NOT AVBL

.........CENTRAL SC.........

CITY           SKY/WX    TMP DP  RH WIND       PRES   REMARKS
COLUMBIA       LGT RAIN  79  72  79 NE7       30.07R
ORANGEBURG     MOCLDY    88  67  49 S6        30.06R HX  91
SUMTER SHAW    CLOUDY    82  77  83 S7        30.04F HX  91

.........WESTERN SC.........

CITY           SKY/WX    TMP DP  RH WIND       PRES   REMARKS
GREENVILLE     NOT AVBL
ROCK HILL      MOCLDY    89  69  51 SW6       30.05F HX  93
ANDERSON       PTSUNNY   89  67  47 S5        30.06S HX  92
CLEMSON        NOT AVBL
GREENWOOD      MOSUNNY   88  70  55 CALM      30.07S HX  93


...................COASTAL AND OFFSHORE REPORTS..................

................LOCAL PIERS AND NC RESERVE................


STATION/POSITION TIME  SKY/WX   TEMP    WIND        PRES    VSBY
                                AIR SEA DIR/SP/G
                 (UTC)          (F)     (DEG/KT/KT) (MB)    (MI)
JOHNY MRCER PIER 2300            83 85  190/ 17/ 19 1017.3F
NC RESRV MASNBRO 2200            85     190/  8     1018.0R
OCEAN CREST PIER 2300            84 86  170/ 13/ 14 1017.5R
SPRINGMAID  PIER 2300            83 84  180/ 13/ 15 1018.1R


................COASTAL AND OFFSHORE BUOYS................


STATION/POSITION TIME  SKY/WX   TEMP    WIND        PRES    VSBY
                                AIR SEA DIR/SP/G
                 (UTC)          (F)     (DEG/KT/KT) (MB)    (MI)
DIMNDSHOAL 41025 2300            82     200/ 16/ 17 1017.6F
WVE H/P(F/S)=  3/ 8 WND WVE H/P(F/S)=  3/ 4 SWL H/P/D(F/S/D)=  2/120/ 8

CAPE LOOKOUT     2200            83     200/ 11/ 14 1017.7F
ONSLOW BAY 41036 2300            82 83  210/ 12/ 16 1018.1F
WVE H/P(F/S)=  3/ 9 WND WVE H/P(F/S)=  2/ 4 SWL H/P/D(F/S/D)=  2/ 90/ 9

5 WRITEBCH 41038 2200            80 83  190/ 16/ 19   N/A
MASONBORO  41110 2300               83                N/A
WVE H/P(F/S)=  3/ 7 WND WVE H/P(F/S)=  3/ 7

WILM HARBR 41108 2300               84                N/A
WVE H/P(F/S)=  2/ 8 WND WVE H/P(F/S)=  2/ 8

27WRITEBCH 41037 NOT AVBL
FRYING PAN 41013 NOT AVBL
SUNST NRSH 41024 2200            84     200/ 14/ 16 1017.9R
CAPRS NRSH 41029 2200            84     170/ 10/ 12   N/A
EDISTO     41004 2300            83 84  170/  6/  8 1018.0S
WVE H/P(F/S)=  2/ 8 WND WVE H/P(F/S)=  2/ 4 SWL H/P/D(F/S/D)=  2/ 8



..........OFFSHORE BUOYS BEYOND 100 NM OFFSHORE...........
.....IN A TRIANGLE---HAT TO BERMUDA TO BAHAMAS TO HAT.....


STATION/POSITION TIME  SKY/WX   TEMP    WIND        PRES    VSBY
                                AIR SEA DIR/SP/G
                 (UTC)          (F)     (DEG/KT/KT) (MB)    (MI)
150E HAT   41001 NOT AVBL
W BERMUDA  41048 2155            80 82  340/  4/  4 1020.3
WVE H/P(F/S)=  3/10 SWL H/P/D(F/S/D)=  3/ 70/10

ATLANTIC S 41049 2156            84 85  100/  8/ 10 1020.0
WVE H/P(F/S)=  4/10 WND WVE H/P(F/S)=  2/ 3 SWL H/P/D(F/S/D)=  3/ 20/10

E BAHAMAS  41046 2235            83 85   80/ 12/ 14 1017.4R
WVE H/P(F/S)=  4/ 8 WND WVE H/P(F/S)=  2/ 5 SWL H/P/D(F/S/D)=  3/ 70/ 8

NE BAHAMAS 41047 2203            81 85  100/ 12/ 16 1019.2
WVE H/P(F/S)=  4/ 8 WND WVE H/P(F/S)=  2/ 5 SWL H/P/D(F/S/D)=  3/ 90/ 8

120E CANVRL41010 2300            83 85   80/  4/  6 1018.6S
WVE H/P(F/S)=  2/ 8 SWL H/P/D(F/S/D)=  2/ 80/ 8


END


USA.gov is the U.S. government's official web portal to all federal, state and local government web resources and services.